User: anonymous   Login
Location: Bussy-Saint-Georges
(48.8410°N, 2.7017°E)
Time: 05:35:41
(UTC+00:00)
Language:

Okean 1-7 Rocket - Orbit

View from above orbital plane
View from above orbital plane
View from above satellite
View from above satellite

Ground track
Ground track

The orbit data is extracted from the following two-line orbital elements,

1 23318U 94066B   22017.56675750  .00000176  00000-0  20641-4 0  9996
2 23318  82.5397  54.7640 0024451 149.1567 211.1088 14.78946836469992
Epoch (UTC): 17 January 2022 13:36:07
Eccentricity: 0.0024451
inclination: 82.5397°
perigee height: 615 km
apogee height: 650 km
right ascension of ascending node: 54.7640°
argument of perigee: 149.1567°
revolutions per day: 14.78946836
mean anomaly at epoch: 211.1088°
orbit number at epoch: 46999

The dashed part of the orbit path shows where the satellite is in the earth's shadow,  

DLR